Latest Weather Observations for Sydney Airport

IDN60901

Issued at 11:41 pm EDT Sunday 21 December 2014 (issued every 10 minutes, with the page automatically refreshed every 10 minutes)

About weather observations | Map of Sydney area stations | Latest observations for Sydney area | Other Formats
Station Details ID: 066037 Name: SYDNEY AIRPORT AMO Lat: -33.95 Lon: 151.17 Height: 6.0 m
Data from the previous 72 hours. | See also: Recent months at Sydney Airport
Date/Time
EDT
Tmp

°C
App
Tmp
°C
Dew
Point
°C
Rel
Hum
%
Delta-T

°C
Wind Press
QNH
hPa
Press
MSL
hPa
Rain
since
9 am
mm
Dir
 
Spd
km/h
Gust
km/h
Spd
kts
Gust
kts
21/11:30pm 22.5 19.9 17.8 75 2.9 NNE 28 35 15 19 1016.2 1016.2 0.0
21/11:15pm 22.8 20.2 17.8 73 3.1 NNE 28 46 15 25 1016.2 1016.2 0.0
21/11:00pm 22.8 20.2 17.8 73 3.1 NNE 28 33 15 18 1016.5 1016.5 0.0
21/10:30pm 23.0 20.0 17.7 72 3.3 NNE 30 39 16 21 1016.5 1016.5 0.0
21/10:00pm 23.1 20.9 17.8 72 3.3 NNE 26 44 14 24 1016.7 1016.7 0.0
21/09:30pm 22.9 20.0 17.9 73 3.1 NNE 30 37 16 20 1016.7 1016.7 0.0
21/09:00pm 22.8 20.2 17.8 73 3.1 NNE 28 43 15 23 1016.1 1016.1 0.0
21/08:30pm 23.4 19.4 17.6 70 3.6 NE 35 48 19 26 1015.6 1015.6 0.0
21/08:00pm 23.4 18.6 17.6 70 3.6 NE 39 52 21 28 1015.4 1015.4 0.0
21/07:30pm 24.0 18.8 17.4 66 4.1 NE 41 56 22 30 1015.1 1015.1 0.0
21/07:09pm 24.1 18.7 17.1 65 4.3 NE 41 59 22 32 1014.9 1014.9 0.0
21/07:00pm 24.5 18.8 17.2 63 4.5 NE 43 59 23 32 1014.9 1014.9 0.0
21/05:30pm 25.4 19.6 15.9 55 5.8 NE 41 54 22 29 1014.7 1014.7 0.0
21/05:00pm 26.9 21.6 16.2 52 6.6 NE 39 50 21 27 1015.0 1015.0 0.0
21/04:30pm 26.1 21.1 16.0 53 6.2 NE 37 46 20 25 1015.1 1015.1 0.0
21/04:00pm 25.8 20.7 15.8 54 6.1 NE 37 46 20 25 1015.3 1015.3 0.0
21/03:30pm 26.4 21.1 15.3 50 6.7 NE 37 48 20 26 1015.7 1015.7 0.0
21/03:00pm 27.0 21.9 14.9 47 7.3 ENE 35 43 19 23 1015.8 1015.8 0.0
21/02:30pm 27.4 22.8 14.6 45 7.7 NE 32 44 17 24 1016.1 1016.1 0.0
21/02:00pm 26.7 22.1 15.1 49 7.0 ENE 33 41 18 22 1016.5 1016.5 0.0
21/01:30pm 26.9 23.2 15.0 48 7.2 NE 28 39 15 21 1017.0 1017.0 0.0
21/01:00pm 26.3 22.8 15.4 51 6.6 NE 28 35 15 19 1017.5 1017.5 0.0
21/12:30pm 26.9 23.3 14.1 45 7.6 NE 26 35 14 19 1017.9 1017.9 0.0
21/12:00pm 25.3 21.4 14.3 50 6.5 NE 28 37 15 20 1018.1 1018.1 0.0
21/11:30am 25.7 21.7 14.2 49 6.8 NNE 28 35 15 19 1017.9 1017.9 0.0
21/11:00am 25.9 23.2 14.5 49 6.8 NE 22 33 12 18 1018.0 1018.0 0.0
21/10:30am 24.7 21.6 14.6 53 6.0 NE 24 30 13 16 1018.1 1018.1 0.0
21/10:00am 23.8 22.0 14.5 56 5.5 NE 17 22 9 12 1018.3 1018.3 0.0
21/09:30am 23.9 22.0 14.2 54 5.7 NE 17 30 9 16 1018.4 1018.4 0.0
21/09:00am 22.8 22.6 14.7 60 4.8 N 9 15 5 8 1018.6 1018.6 0.0
21/08:30am 21.8 21.3 14.8 64 4.1 WNW 11 17 6 9 1018.6 1018.6 0.0
21/08:00am 21.3 20.8 13.9 62 4.3 WNW 9 13 5 7 1018.5 1018.5 0.0
21/07:30am 20.3 20.3 14.3 68 3.5 W 7 11 4 6 1018.2 1018.2 0.0
21/07:00am 19.9 19.8 14.0 69 3.4 WSW 7 11 4 6 1018.0 1018.0 0.0
21/06:30am 19.0 20.2 13.7 71 3.0 CALM 0 0 0 0 1017.8 1017.8 0.0
21/05:30am 17.2 16.8 14.2 82 1.7 WSW 9 11 5 6 1017.5 1017.5 0.0
21/05:00am 17.5 17.1 14.2 81 1.9 SW 9 11 5 6 1017.3 1017.3 0.0
21/04:30am 17.8 17.3 13.7 77 2.3 SW 9 9 5 5 1017.2 1017.2 0.0
21/04:00am 18.0 18.1 14.0 77 2.3 SW 6 7 3 4 1017.1 1017.1 0.0
21/03:30am 18.1 17.9 13.7 75 2.5 WSW 7 7 4 4 1017.2 1017.2 0.0
21/03:00am 18.4 17.8 13.6 73 2.7 WSW 9 11 5 6 1017.4 1017.4 0.0
21/02:30am 18.6 18.4 13.5 72 2.9 WSW 7 9 4 5 1017.5 1017.5 0.0
21/02:00am 18.7 18.1 13.6 72 2.9 WSW 9 11 5 6 1017.8 1017.8 0.0
21/01:30am 18.9 18.3 13.6 71 3.0 W 9 9 5 5 1018.1 1018.1 0.0
21/01:00am 19.1 19.1 13.7 71 3.1 NNW 6 9 3 5 1018.4 1018.4 0.0
21/12:30am 20.3 19.6 13.3 64 4.0 NNE 9 9 5 5 1018.4 1018.4 0.0
 
Date/Time
EDT
Tmp

°C
App
Tmp
°C
Dew
Point
°C
Rel
Hum
%
Delta-T

°C
Wind Press
QNH
hPa
Press
MSL
hPa
Rain
since
9 am
mm
Dir
 
Spd
km/h
Gust
km/h
Spd
kts
Gust
kts
20/11:30pm 20.2 19.5 13.2 64 4.0 NNE 9 13 5 7 1018.9 1018.9 0.0
20/11:00pm 20.3 18.8 13.1 63 4.1 NE 13 17 7 9 1018.9 1018.9 0.0
20/10:30pm 20.2 18.6 12.9 63 4.1 NE 13 15 7 8 1018.8 1018.8 0.0
20/10:00pm 20.3 18.7 12.9 62 4.2 NE 13 17 7 9 1018.7 1018.7 0.0
20/09:30pm 20.4 18.0 12.6 61 4.4 NE 17 19 9 10 1018.3 1018.3 0.0
20/09:00pm 20.4 17.9 12.2 59 4.6 NE 17 22 9 12 1018.0 1018.0 0.0
20/08:30pm 20.9 17.8 11.7 55 5.1 ENE 19 26 10 14 1017.5 1017.5 0.0
20/08:00pm 20.9 17.8 11.7 55 5.1 ENE 19 26 10 14 1017.2 1017.2 0.0
20/07:30pm 21.0 16.9 11.6 55 5.2 ENE 24 30 13 16 1016.9 1016.9 0.0
20/07:00pm 21.3 17.7 11.8 54 5.3 ENE 22 32 12 17 1016.7 1016.7 0.0
20/06:30pm 21.5 17.5 11.8 54 5.4 ENE 24 32 13 17 1016.2 1016.2 0.0
20/06:00pm 21.8 17.7 11.6 52 5.7 ENE 24 33 13 18 1015.9 1015.9 0.0
20/05:30pm 21.9 17.6 10.8 49 6.1 ENE 24 33 13 18 1015.8 1015.8 0.0
20/05:00pm 22.3 17.7 11.1 49 6.2 E 26 37 14 20 1015.9 1015.9 0.0
20/04:30pm 22.2 17.1 10.5 47 6.4 E 28 33 15 18 1016.0 1016.0 0.0
20/04:00pm 22.2 17.5 10.7 48 6.3 E 26 32 14 17 1016.2 1016.2 0.0
20/03:30pm 22.5 17.8 10.7 47 6.5 E 26 33 14 18 1016.4 1016.4 0.0
20/03:00pm 23.2 18.5 10.5 44 7.0 E 26 33 14 18 1016.5 1016.5 0.0
20/02:30pm 23.2 18.8 10.5 44 7.0 E 24 32 13 17 1016.6 1016.6 0.0
20/02:00pm 21.8 17.9 10.7 49 6.1 E 22 37 12 20 1016.9 1016.9 0.0
20/01:30pm 22.1 18.5 10.6 48 6.3 E 20 28 11 15 1017.2 1017.2 0.0
20/01:00pm 23.1 20.5 10.6 45 6.9 E 15 30 8 16 1017.4 1017.4 0.0
20/12:30pm 22.9 19.9 10.8 46 6.7 E 17 26 9 14 1017.7 1017.7 0.0
20/12:00pm 22.4 18.9 10.3 46 6.6 SE 19 24 10 13 1017.7 1017.7 0.0
20/11:30am 22.1 19.1 10.8 48 6.2 SE 17 24 9 13 1018.2 1018.2 0.0
20/11:00am 21.5 19.2 10.3 49 6.1 SSE 13 17 7 9 1018.4 1018.4 0.0
20/10:30am 20.9 18.7 10.8 52 5.5 SSE 13 17 7 9 1018.4 1018.4 0.0
20/10:00am 19.9 17.7 10.7 55 5.0 SSE 13 17 7 9 1018.4 1018.4 0.0
20/09:30am 19.7 17.0 10.4 55 5.0 SSE 15 17 8 9 1018.5 1018.5 0.0
20/09:00am 19.4 16.9 9.8 53 5.1 SSE 13 17 7 9 1018.6 1018.6 0.0
20/08:30am 19.3 18.1 11.5 60 4.3 S 9 13 5 7 1018.5 1018.5 0.0
20/08:00am 19.2 18.2 11.1 59 4.4 SSE 7 13 4 7 1018.4 1018.4 0.0
20/07:30am 19.0 18.1 11.3 61 4.2 S 7 9 4 5 1018.1 1018.1 0.0
20/07:00am 18.6 17.6 11.0 61 4.1 S 7 9 4 5 1017.8 1017.8 0.0
20/06:30am 18.4 16.9 10.6 60 4.2 S 9 13 5 7 1017.6 1017.6 0.0
20/06:00am 18.3 16.6 12.3 68 3.3 S 13 15 7 8 1017.5 1017.5 0.0
20/05:30am 18.0 16.3 12.4 70 3.1 S 13 17 7 9 1017.4 1017.4 0.0
20/05:00am 18.2 15.8 11.4 64 3.7 SSW 15 19 8 10 1017.2 1017.2 0.0
20/04:30am 18.5 16.2 10.5 59 4.3 SSE 13 15 7 8 1017.0 1017.0 0.0
20/04:00am 18.6 15.7 9.7 56 4.7 SSE 15 17 8 9 1016.9 1016.9 0.0
20/03:30am 18.8 16.1 10.2 57 4.6 SE 15 19 8 10 1017.0 1017.0 0.0
20/03:00am 18.6 15.8 9.9 57 4.6 SE 15 19 8 10 1017.2 1017.2 0.0
20/02:30am 18.7 15.7 10.5 59 4.4 SSE 17 20 9 11 1017.3 1017.3 0.0
20/02:00am 18.9 16.2 10.3 57 4.6 SSE 15 20 8 11 1017.5 1017.5 0.0
20/01:30am 18.9 16.1 10.1 56 4.7 SSE 15 17 8 9 1017.8 1017.8 0.0
20/01:00am 19.0 16.1 9.8 55 4.9 SSE 15 20 8 11 1018.1 1018.1 0.0
20/12:30am 19.2 16.2 10.5 57 4.7 SE 17 24 9 13 1018.4 1018.4 0.0
20/12:00am 19.1 16.0 10.3 56 4.7 SE 17 24 9 13 1018.5 1018.5 0.0
 
Date/Time
EDT
Tmp

°C
App
Tmp
°C
Dew
Point
°C
Rel
Hum
%
Delta-T

°C
Wind Press
QNH
hPa
Press
MSL
hPa
Rain
since
9 am
mm
Dir
 
Spd
km/h
Gust
km/h
Spd
kts
Gust
kts
19/11:30pm 19.2 14.9 10.9 58 4.5 SSE 24 30 13 16 1018.7 1018.7 0.0
19/11:00pm 19.3 15.5 11.0 58 4.5 SE 22 30 12 16 1018.7 1018.7 0.0
19/10:30pm 19.4 15.7 9.3 52 5.3 SE 19 26 10 14 1018.5 1018.5 0.0
19/10:00pm 19.4 14.3 9.3 52 5.3 SSE 26 33 14 18 1018.1 1018.1 0.0
19/09:30pm 19.5 15.5 10.4 55 4.9 SE 22 30 12 16 1017.8 1017.8 0.0
19/09:00pm 19.5 15.3 9.9 54 5.1 SE 22 28 12 15 1017.6 1017.6 0.0
19/08:30pm 19.8 15.2 9.6 51 5.4 SSE 24 32 13 17 1017.3 1017.3 0.0
19/08:00pm 19.7 14.5 8.8 49 5.7 SSE 26 32 14 17 1016.8 1016.8 0.0
19/07:30pm 19.7 15.1 9.7 52 5.3 SSE 24 33 13 18 1016.2 1016.2 0.0
19/07:00pm 19.9 15.3 9.8 52 5.4 SE 24 33 13 18 1015.6 1015.6 0.0
19/06:30pm 19.9 14.6 8.6 48 5.9 SE 26 32 14 17 1015.0 1015.0 0.0
19/06:00pm 20.3 14.9 9.6 50 5.7 SE 28 33 15 18 1014.5 1014.5 0.0
19/05:30pm 20.3 15.3 11.0 55 5.1 SSE 28 33 15 18 1013.9 1013.9 0.0
19/05:00pm 21.7 15.9 9.6 46 6.5 SSE 30 37 16 20 1013.6 1013.6 0.0
19/04:30pm 20.9 15.4 10.6 51 5.6 SSE 30 39 16 21 1013.3 1013.3 0.0
19/04:00pm 21.4 16.2 10.2 49 6.1 SSE 28 37 15 20 1013.3 1013.3 0.0
19/03:30pm 22.6 17.3 9.7 44 7.0 SSE 28 35 15 19 1013.4 1013.4 0.0
19/03:00pm 21.2 15.7 9.2 46 6.4 SSE 28 33 15 18 1013.3 1013.3 0.0
19/02:30pm 21.8 16.0 8.0 41 7.2 SSE 28 35 15 19 1013.4 1013.4 0.0
19/02:00pm 21.1 16.1 11.1 52 5.5 SSE 28 35 15 19 1013.3 1013.3 0.0
19/01:30pm 20.9 14.9 10.2 50 5.8 SSE 32 39 17 21 1013.6 1013.6 0.0
19/01:00pm 20.6 15.7 11.4 55 5.1 SSE 28 35 15 19 1013.5 1013.5 0.0
19/12:30pm 21.2 16.2 11.0 52 5.6 SSE 28 37 15 20 1013.4 1013.4 0.0
19/12:00pm 20.5 15.2 11.4 56 5.0 SSE 30 35 16 19 1013.5 1013.5 0.0
19/11:30am 21.3 15.6 11.8 54 5.3 SSE 33 41 18 22 1013.5 1013.5 0.0
19/11:00am 20.1 14.6 12.0 59 4.5 S 32 41 17 22 1013.4 1013.4 0.0
19/10:30am 20.3 14.8 12.5 61 4.4 S 33 41 18 22 1013.2 1013.2 0.0
19/10:00am 20.3 14.0 11.0 55 5.1 S 35 43 19 23 1012.9 1012.9 0.0
19/09:30am 20.0 13.8 12.7 63 4.1 S 37 50 20 27 1012.9 1012.9 0.0
19/09:00am 19.9 13.6 12.2 61 4.3 S 37 46 20 25 1012.6 1012.6 0.0
19/08:30am 19.9 14.3 13.4 66 3.7 S 35 48 19 26 1012.3 1012.3 0.0
19/08:00am 19.4 12.9 13.0 66 3.6 S 39 50 21 27 1012.0 1012.0 0.0
19/07:30am 19.5 13.5 13.2 67 3.6 S 37 52 20 28 1011.7 1011.7 0.0
19/07:00am 19.3 12.4 13.9 71 3.1 S 43 54 23 29 1011.0 1011.0 0.0
19/06:30am 18.9 11.8 14.0 73 2.8 S 44 59 24 32 1010.7 1010.7 0.0
19/06:00am 18.7 12.2 15.1 79 2.1 S 43 54 23 29 1010.1 1010.1 0.0
19/05:30am 18.7 12.3 15.5 81 1.9 S 43 57 23 31 1009.6 1009.6 0.0
19/05:00am 18.8 12.1 16.1 84 1.6 SSW 46 59 25 32 1008.9 1008.9 0.0
19/04:30am 19.0 11.9 16.0 83 1.8 SSW 48 63 26 34 1008.4 1008.4 0.0
19/04:00am 19.4 12.8 16.4 83 1.8 SSW 46 69 25 37 1007.9 1007.9 0.0
19/03:52am 21.4 17.3 15.9 71 3.3 WSW 32 69 17 37 1007.3 1007.3 0.0
19/03:30am 21.1 18.5 17.7 81 2.1 W 28 35 15 19 1006.7 1006.7 0.0
19/03:00am 21.1 20.0 19.4 90 1.1 W 24 28 13 15 1006.4 1006.4 0.0
19/02:30am 20.9 22.2 19.3 90 1.0 WNW 11 13 6 7 1006.2 1006.2 0.0
19/02:00am 21.0 22.3 19.4 90 1.0 WNW 11 13 6 7 1006.0 1006.0 0.0
19/01:30am 21.3 23.1 19.6 90 1.1 WNW 9 11 5 6 1005.9 1005.9 0.0
19/01:00am 21.4 23.6 19.7 90 1.1 WNW 7 9 4 5 1005.9 1005.9 0.0
19/12:30am 22.4 24.7 19.8 85 1.7 WNW 7 9 4 5 1006.1 1006.1 0.0
19/12:00am 23.0 25.0 19.9 83 2.0 NW 9 11 5 6 1006.3 1006.3 0.0

Latest Capital City Observations: Canberra | Sydney | Melbourne | Brisbane | Adelaide | Perth | Hobart | Darwin

Other Formats:

Comma delimited format used in spreadsheet applications
http://www.bom.gov.au/fwo/IDN60901/IDN60901.94767.axf

JavaScript Object Notation format (JSON) in row-major order
http://www.bom.gov.au/fwo/IDN60901/IDN60901.94767.json